This demonstration page uses our WeatherBlox Daily Observations layout. Learn more.

Left ArrowRight Arrow

36.17497, -115.13722

Hourly Observations for October 2, 2021

Temp ( °F °C ) Dew Point ( °F °C ) Humidity (%) Winds ( mph kmh ) Pressure ( in mb ) Visibility ( mi km ) Precip ( " mm )
12:53 am 00:53 Clear 67 19.4 30 -1.1 25 25 WNW 6 9 30.06 1018 10 16 N/A
1:53 am 01:53 Clear 67 19.4 28 -2.2 23 23 WNW 7 11 30.06 1018 10 16 N/A
2:53 am 02:53 Clear 67 19.4 27 -2.8 22 22 W 8 13 30.06 1018 10 16 N/A
3:53 am 03:53 Clear 67 19.4 26 -3.3 21 21 N N/A 30.06 1018 10 16 N/A
4:53 am 04:53 Clear 64 17.8 26 -3.3 24 24 N N/A 30.07 1018 10 16 N/A
5:53 am 05:53 Clear 62 16.7 30 -1.1 30 30 WNW 6 9 30.09 1019 10 16 N/A
6:53 am 06:53 Sunny 64 17.8 29 -1.7 27 27 W 10 17 30.10 1019 10 16 N/A
7:53 am 07:53 Sunny 66 18.9 32 undefined 28 28 W 3 6 30.11 1020 10 16 N/A
8:53 am 08:53 Sunny 73 22.8 31 -0.6 21 21 N N/A 30.11 1020 10 16 N/A
9:53 am 09:53 Sunny 79 26.1 25 -3.9 14 14 NNE 5 7 30.11 1020 10 16 N/A
10:53 am 10:53 Sunny 81 27.2 25 -3.9 13 13 N N/A 30.11 1020 10 16 N/A
11:53 am 11:53 Sunny 83 28.3 26 -3.3 12 12 VRB 3 6 30.09 1019 10 16 N/A
12:53 pm 12:53 Sunny 85 29.4 25 -3.9 11 11 N N/A 30.07 1018 10 16 N/A
1:53 pm 13:53 Sunny 86 30 27 -2.8 12 12 ESE 6 9 30.04 1017 10 16 N/A
2:53 pm 14:53 Sunny 88 31.1 27 -2.8 11 11 undefined N/A 30.01 1016 10 16 N/A
3:53 pm 15:53 Sunny 88 31.1 27 -2.8 11 11 SSE 6 9 30.00 1016 10 16 N/A
4:53 pm 16:53 Sunny 88 31.1 27 -2.8 11 11 N N/A 29.99 1016 10 16 N/A
5:53 pm 17:53 Sunny 87 30.6 27 -2.8 11 11 N N/A 29.98 1015 10 16 N/A
6:53 pm 18:53 Clear 85 29.4 28 -2.2 13 13 NW 3 6 29.98 1015 10 16 N/A
7:53 pm 19:53 Clear 82 27.8 31 -0.6 16 16 W 5 7 29.99 1016 10 16 N/A
8:53 pm 20:53 Clear 78 25.6 33 0.6 19 19 WNW 7 11 29.99 1016 10 16 N/A
9:53 pm 21:53 Clear 76 24.4 34 1.1 22 22 W 7 11 30.00 1016 10 16 N/A
10:53 pm 22:53 Clear 74 23.3 33 0.6 22 22 W 6 9 30.00 1016 10 16 N/A
11:53 pm 23:53 Clear 75 23.9 30 -1.1 19 19 WNW 8 13 30.00 1016 10 16 N/A

Powered by AerisWeather